Weather History for KRHI - October, 2013

Change the Weather History Date:

Thursday, October 24, 2013

  Actual Average Record
Temperature  
Mean Temperature 31 °F 41 °F  
Max Temperature 38 °F 50 °F 77 °F (1963)
Min Temperature 24 °F 32 °F 14 °F (2002)
Degree Days  
Heating Degree Days 34 24  
Month to date heating degree days 461 483  
Since 1 July heating degree days 913 915  
Cooling Degree Days 0 0  
Month to date cooling degree days 0 0  
Year to date cooling degree days 281 259  
Moisture  
Dew Point 26 °F    
Average Humidity 76    
Maximum Humidity 92    
Minimum Humidity 59    
Precipitation  
Precipitation T in 0.07 in 1.25 in (1991)
Month to date precipitation 3.77 2.52  
Year to date precipitation 32.73 27.60  
Snow  
Snow 0.10 in - 1.00 in (1925)
Month to date snowfall 2.2  
Since 1 July snowfall 2.2  
Since 1 September snowfall 2.2  
Snow Depth 0.00 in    
Sea Level Pressure  
Sea Level Pressure 30.09 in    
Wind  
Wind Speed 8 mph (WNW)    
Max Wind Speed 15 mph    
Max Gust Speed 23 mph    
Visibility 8 miles    
Events Snow    
T = Trace of Precipitation, MM = Missing Value Source: NWS Daily Summary

Daily Weather History Graph

Daily Weather History Graph

Search for Another Location

Airport or City:

Trip Planner

Search our weather history database for the weather conditions in past years. The results will help you decide how hot, cold, wet, or windy it might be!

Date:

Astronomy

Oct. 24, 2013 Rise Set
Actual Time 7:26 AM CDT 5:56 PM CDT
Civil Twilight 6:56 AM CDT 6:26 PM CDT
Nautical Twilight 6:21 AM CDT 7:01 PM CDT
Astronomical Twilight 5:47 AM CDT 7:35 PM CDT
Moon 10:14 PM CDT (10/24) 12:34 PM CDT (10/24)
Length of Visible Light 11h 30m
Length of Day
10h 29m
Waning Gibbous, 71% of the Moon is Illuminated
Oct 24
Waning Gibbous
Oct 26
Last Quarter
Nov 3
New
Nov 9
First Quarter
Nov 17
Full

Hourly Weather History & Observations

Time (CDT) Temp. Windchill Dew Point Humidity Pressure Visibility Wind Dir Wind Speed Gust Speed Precip Events Conditions
12:53 AM 30.0 °F 22.4 °F 24.1 °F 79% 30.01 in 10.0 mi West 8.1 mph - N/A   Overcast
1:53 AM 30.0 °F 21.1 °F 25.0 °F 82% 30.02 in 10.0 mi West 10.4 mph - N/A   Overcast
2:21 AM 28.4 °F 21.2 °F 26.6 °F 93% 29.97 in 7.0 mi West 6.9 mph - N/A   Overcast
2:53 AM 28.9 °F 19.2 °F 25.0 °F 85% 30.02 in 10.0 mi West 11.5 mph - N/A   Overcast
3:28 AM 28.4 °F 20.4 °F 24.8 °F 86% 29.97 in 10.0 mi WNW 8.1 mph - N/A   Overcast
3:36 AM 28.4 °F 20.4 °F 24.8 °F 86% 29.97 in 10.0 mi West 8.1 mph - N/A   Overcast
3:53 AM 28.9 °F 21.1 °F 24.1 °F 82% 30.03 in 10.0 mi WNW 8.1 mph - N/A   Overcast
4:33 AM 30.2 °F 21.9 °F 26.6 °F 86% 29.98 in 10.0 mi WNW 9.2 mph - N/A   Overcast
4:53 AM 30.0 °F 22.4 °F 26.1 °F 85% 30.04 in 6.0 mi West 8.1 mph - N/A   Overcast
5:46 AM 28.4 °F 20.4 °F 26.6 °F 93% 30.00 in 1.8 mi WNW 8.1 mph - 0.00 in Snow Light Snow
5:53 AM 28.9 °F 22.8 °F 27.0 °F 92% 30.06 in 1.5 mi West 5.8 mph - 0.00 in Snow Light Snow
6:01 AM 28.4 °F 19.7 °F 26.6 °F 93% 30.00 in 3.0 mi West 9.2 mph - 0.00 in Snow Light Snow
6:08 AM 30.2 °F 23.4 °F 26.6 °F 86% 30.01 in 5.0 mi WNW 6.9 mph - 0.00 in   Overcast
6:20 AM 30.2 °F 25.4 °F 26.6 °F 86% 30.01 in 2.5 mi WNW 4.6 mph - 0.00 in Snow Light Snow
6:30 AM 30.2 °F 22.6 °F 26.6 °F 86% 30.01 in 1.8 mi West 8.1 mph - 0.00 in Snow Light Snow
6:38 AM 30.2 °F 23.4 °F 26.6 °F 86% 30.02 in 3.0 mi WNW 6.9 mph - 0.00 in Snow Light Snow
6:53 AM 28.9 °F 21.9 °F 27.0 °F 92% 30.08 in 4.0 mi WNW 6.9 mph - 0.00 in Snow Light Snow
7:04 AM 28.4 °F 21.2 °F 28.4 °F 100% 30.02 in 2.0 mi West 6.9 mph - 0.00 in Snow Light Snow
7:17 AM 30.2 °F 23.4 °F 28.4 °F 93% 30.02 in 1.8 mi WNW 6.9 mph - 0.00 in Snow Light Snow
7:21 AM 30.2 °F 22.6 °F 28.4 °F 93% 30.03 in 2.0 mi WNW 8.1 mph - 0.00 in Snow Light Snow
7:33 AM 30.2 °F 22.6 °F 28.4 °F 93% 30.03 in 5.0 mi West 8.1 mph - 0.00 in Snow Light Snow
7:46 AM 30.2 °F 21.9 °F 26.6 °F 86% 30.03 in 10.0 mi West 9.2 mph - 0.00 in   Overcast
7:53 AM 30.0 °F 21.7 °F 27.0 °F 88% 30.10 in 10.0 mi WNW 9.2 mph - 0.00 in   Overcast
8:31 AM 30.2 °F 22.6 °F 28.4 °F 93% 30.04 in 10.0 mi West 8.1 mph - N/A   Mostly Cloudy
8:53 AM 30.9 °F 24.3 °F 27.0 °F 85% 30.11 in 10.0 mi WNW 6.9 mph - N/A   Overcast
9:08 AM 30.2 °F 23.4 °F 26.6 °F 86% 30.05 in 10.0 mi WNW 6.9 mph - N/A   Overcast
9:53 AM 33.1 °F 26.1 °F 28.0 °F 82% 30.12 in 10.0 mi WNW 8.1 mph - N/A   Overcast
10:15 AM 33.8 °F 25.3 °F 26.6 °F 75% 30.07 in 10.0 mi NW 11.5 mph 19.6 mph N/A   Overcast
10:53 AM 34.0 °F 28.0 °F 27.0 °F 75% 30.14 in 10.0 mi NW 6.9 mph - N/A   Overcast
11:53 AM 35.1 °F 26.9 °F 27.0 °F 72% 30.15 in 10.0 mi WNW 11.5 mph - N/A   Overcast
12:48 PM 35.6 °F 29.2 °F 24.8 °F 65% 30.09 in 10.0 mi NW 8.1 mph 16.1 mph N/A   Overcast
12:53 PM 37.0 °F 32.4 °F 26.1 °F 65% 30.15 in 10.0 mi NW 5.8 mph - N/A   Overcast
1:05 PM 37.4 °F 30.3 °F 26.6 °F 65% 30.10 in 10.0 mi West 10.4 mph - N/A   Overcast
1:15 PM 37.4 °F 31.4 °F 26.6 °F 65% 30.09 in 10.0 mi NW 8.1 mph 18.4 mph N/A   Overcast
1:53 PM 37.9 °F 29.6 °F 25.0 °F 60% 30.15 in 10.0 mi WNW 13.8 mph 17.3 mph N/A   Overcast
2:53 PM 37.0 °F 29.8 °F 24.1 °F 59% 30.17 in 10.0 mi WNW 10.4 mph 20.7 mph N/A   Overcast
3:53 PM 36.0 °F 28.0 °F 24.1 °F 62% 30.19 in 10.0 mi WNW 11.5 mph - N/A   Overcast
4:53 PM 36.0 °F 30.3 °F 23.0 °F 59% 30.20 in 10.0 mi WNW 6.9 mph - N/A   Mostly Cloudy
5:53 PM 34.0 °F 26.0 °F 24.1 °F 67% 30.22 in 10.0 mi West 10.4 mph - N/A   Overcast
6:53 PM 30.9 °F 26.2 °F 23.0 °F 72% 30.24 in 10.0 mi WNW 4.6 mph - N/A   Clear
7:53 PM 28.0 °F 22.8 °F 21.0 °F 75% 30.25 in 10.0 mi West 4.6 mph - N/A   Clear
8:53 PM 24.1 °F 19.7 °F 19.9 °F 84% 30.25 in 10.0 mi SW 3.5 mph - N/A   Clear
9:53 PM 27.0 °F - 21.9 °F 81% 30.26 in 10.0 mi Calm Calm - N/A   Overcast
10:53 PM 26.1 °F 18.4 °F 21.9 °F 84% 30.26 in 10.0 mi WSW 6.9 mph - N/A   Mostly Cloudy
11:53 PM 30.0 °F 21.7 °F 24.1 °F 79% 30.27 in 10.0 mi West 9.2 mph - N/A   Clear